When you browse on this site, cookies collect data to enhance your experience and personalize the content and advertising you see.
Visit our Privacy Policy to learn more. By continuing to use the site, you agree to this use of cookies and data.
  • In Sweden
  • List of Countries
  • For 7 days
  • Water Temperature
  • Satellite Maps
  • Weather Map
  • Weather Widgets
  • user-avatar
    Login

    Hourly Weather Bandipur

    Today, 21 May, Tuesday

    Time Temperature Precipitation Wind Pressure Humidity
    00:00 +30°C° 0 mm 2 mps 740 mmHg 35%
    01:00 +29°C° 0 mm 2 mps 740 mmHg 35%
    02:00 +29°C° 0 mm 2 mps 740 mmHg 36%
    03:00 +29°C° 0 mm 2 mps 740 mmHg 36%
    04:00 +28°C° 0 mm 2 mps 740 mmHg 36%
    05:00 +28°C° 0 mm 2 mps 740 mmHg 36%
    06:00 +28°C° 0 mm 1 mps 740 mmHg 36%
    07:00 +31°C° 0 mm 1 mps 740 mmHg 33%
    08:00 +34°C° 0 mm 1 mps 740 mmHg 30%
    09:00 +37°C° 0 mm 1 mps 740 mmHg 26%
    10:00 +40°C° 0 mm 2 mps 740 mmHg 25%
    11:00 +41°C° 0 mm 2 mps 740 mmHg 23%
    12:00 +42°C° 0 mm 2 mps 740 mmHg 21%
    13:00 +44°C° 0 mm 3 mps 739 mmHg 20%
    14:00 +45°C° 0 mm 3 mps 739 mmHg 19%
    15:00 +45°C° 0 mm 3 mps 739 mmHg 17%
    16:00 +44°C° 0 mm 3 mps 738 mmHg 18%
    17:00 +42°C° 0 mm 2 mps 738 mmHg 20%
    18:00 +41°C° 0 mm 2 mps 738 mmHg 21%
    19:00 +39°C° 0 mm 2 mps 738 mmHg 24%
    20:00 +37°C° 0 mm 2 mps 738 mmHg 27%
    21:00 +35°C° 0 mm 2 mps 739 mmHg 29%
    22:00 +34°C° 0 mm 2 mps 739 mmHg 30%
    23:00 +32°C° 0 mm 2 mps 739 mmHg 31%

    Tomorrow, 22 May, Wednesday

    Time Temperature Precipitation Wind Pressure Humidity
    00:00 +31°C° 0 mm 2 mps 739 mmHg 32%
    01:00 +30°C° 0 mm 2 mps 739 mmHg 33%
    02:00 +30°C° 0 mm 2 mps 738 mmHg 34%
    03:00 +29°C° 0 mm 2 mps 738 mmHg 34%
    04:00 +29°C° 0 mm 2 mps 738 mmHg 35%
    05:00 +28°C° 0 mm 2 mps 738 mmHg 35%
    06:00 +28°C° 0 mm 2 mps 738 mmHg 35%
    07:00 +32°C° 0 mm 2 mps 738 mmHg 31%
    08:00 +35°C° 0 mm 1 mps 739 mmHg 27%
    09:00 +40°C° 0 mm 1 mps 739 mmHg 23%
    10:00 +41°C° 0 mm 2 mps 739 mmHg 21%
    11:00 +42°C° 0 mm 2 mps 739 mmHg 20%
    12:00 +45°C° 0 mm 3 mps 739 mmHg 19%
    13:00 +45°C° 0 mm 3 mps 738 mmHg 19%
    14:00 +45°C° 0 mm 3 mps 737 mmHg 18%
    15:00 +46°C° 0 mm 3 mps 737 mmHg 17%
    16:00 +45°C° 0.2 mm 3 mps 736 mmHg 19%
    17:00 +43°C° 0.2 mm 3 mps 736 mmHg 21%
    18:00 +42°C° 0.2 mm 3 mps 736 mmHg 23%
    19:00 +38°C° 0.1 mm 3 mps 737 mmHg 27%
    20:00 +36°C° 0.1 mm 3 mps 737 mmHg 31%
    21:00 +33°C° 0.1 mm 3 mps 737 mmHg 34%
    22:00 +31°C° 0 mm 3 mps 738 mmHg 35%
    23:00 +31°C° 0 mm 3 mps 738 mmHg 35%

    Day after tomorrow, 23 May, Thursday

    Time Temperature Precipitation Wind Pressure Humidity
    00:00 +30°C° 0 mm 2 mps 738 mmHg 36%
    01:00 +29°C° 0 mm 2 mps 737 mmHg 36%
    02:00 +29°C° 0 mm 2 mps 737 mmHg 36%
    03:00 +28°C° 0 mm 2 mps 737 mmHg 36%
    04:00 +28°C° 0 mm 2 mps 737 mmHg 36%
    05:00 +28°C° 0 mm 2 mps 737 mmHg 35%
    06:00 +28°C° 0 mm 2 mps 737 mmHg 35%
    07:00 +31°C° 0 mm 2 mps 738 mmHg 32%
    08:00 +35°C° 0 mm 2 mps 738 mmHg 30%
    09:00 +39°C° 0 mm 2 mps 738 mmHg 27%
    10:00 +40°C° 0 mm 2 mps 738 mmHg 25%
    11:00 +42°C° 0 mm 2 mps 738 mmHg 23%
    12:00 +44°C° 0 mm 3 mps 738 mmHg 21%
    13:00 +45°C° 0 mm 3 mps 737 mmHg 21%
    14:00 +45°C° 0 mm 3 mps 737 mmHg 21%
    15:00 +45°C° 0 mm 3 mps 736 mmHg 21%
    16:00 +43°C° 0.7 mm 3 mps 736 mmHg 26%
    17:00 +40°C° 0.7 mm 3 mps 736 mmHg 31%
    18:00 +37°C° 0.7 mm 3 mps 735 mmHg 36%
    19:00 +35°C° 0.2 mm 3 mps 736 mmHg 40%
    20:00 +33°C° 0.2 mm 3 mps 736 mmHg 44%
    21:00 +30°C° 0.2 mm 3 mps 737 mmHg 47%
    22:00 +29°C° 0 mm 3 mps 737 mmHg 47%
    23:00 +29°C° 0 mm 2 mps 737 mmHg 47%

    24 May, Friday

    Time Temperature Precipitation Wind Pressure Humidity
    00:00 +28°C° 0 mm 2 mps 737 mmHg 47%
    01:00 +28°C° 0 mm 2 mps 737 mmHg 46%
    02:00 +28°C° 0 mm 2 mps 737 mmHg 45%
    03:00 +28°C° 0 mm 1 mps 736 mmHg 44%
    04:00 +28°C° 0 mm 1 mps 737 mmHg 43%
    05:00 +27°C° 0 mm 1 mps 737 mmHg 43%
    06:00 +27°C° 0 mm 1 mps 737 mmHg 43%
    07:00 +30°C° 0 mm 1 mps 738 mmHg 40%
    08:00 +34°C° 0 mm 1 mps 738 mmHg 37%
    09:00 +37°C° 0 mm 1 mps 738 mmHg 34%
    10:00 +39°C° 0 mm 2 mps 738 mmHg 31%
    11:00 +41°C° 0 mm 2 mps 738 mmHg 29%
    12:00 +43°C° 0 mm 3 mps 738 mmHg 26%
    13:00 +44°C° 0 mm 3 mps 737 mmHg 25%
    14:00 +44°C° 0 mm 3 mps 736 mmHg 24%
    15:00 +45°C° 0 mm 3 mps 736 mmHg 24%
    16:00 +44°C° 0.1 mm 3 mps 736 mmHg 26%
    17:00 +42°C° 0.1 mm 2 mps 735 mmHg 27%
    18:00 +41°C° 0.1 mm 1 mps 735 mmHg 29%
    19:00 +39°C° 0.2 mm 2 mps 735 mmHg 36%
    20:00 +36°C° 0.2 mm 2 mps 736 mmHg 42%
    21:00 +32°C° 0.2 mm 2 mps 736 mmHg 48%
    22:00 +31°C° 0 mm 2 mps 736 mmHg 49%
    23:00 +30°C° 0 mm 2 mps 736 mmHg 50%

    25 May, Saturday

    Time Temperature Precipitation Wind Pressure Humidity
    00:00 +29°C° 0 mm 2 mps 736 mmHg 51%
    01:00 +29°C° 0 mm 2 mps 736 mmHg 51%
    02:00 +29°C° 0 mm 1 mps 735 mmHg 51%
    03:00 +28°C° 0 mm 1 mps 735 mmHg 51%
    04:00 +28°C° 0 mm 1 mps 735 mmHg 55%
    05:00 +28°C° 0 mm 1 mps 736 mmHg 58%
    06:00 +28°C° 0 mm 1 mps 736 mmHg 62%
    07:00 +30°C° 0 mm 1 mps 736 mmHg 57%
    08:00 +32°C° 0 mm 2 mps 737 mmHg 53%
    09:00 +36°C° 0 mm 2 mps 737 mmHg 48%
    10:00 +37°C° 0 mm 2 mps 737 mmHg 43%
    11:00 +39°C° 0 mm 2 mps 737 mmHg 38%
    12:00 +42°C° 0 mm 3 mps 737 mmHg 33%
    13:00 +42°C° 0 mm 3 mps 736 mmHg 32%
    14:00 +43°C° 0 mm 3 mps 735 mmHg 30%
    15:00 +43°C° 0 mm 3 mps 735 mmHg 29%
    16:00 +40°C° 0.9 mm 3 mps 734 mmHg 37%
    17:00 +38°C° 0.9 mm 3 mps 734 mmHg 46%
    18:00 +35°C° 0.9 mm 4 mps 734 mmHg 54%
    19:00 +34°C° 0 mm 3 mps 734 mmHg 58%
    20:00 +31°C° 0 mm 3 mps 735 mmHg 63%
    21:00 +30°C° 0 mm 2 mps 735 mmHg 67%
    22:00 +29°C° 0 mm 2 mps 736 mmHg 65%
    23:00 +29°C° 0 mm 2 mps 736 mmHg 64%

    26 May, Sunday

    Time Temperature Precipitation Wind Pressure Humidity
    00:00 +28°C° 0 mm 2 mps 736 mmHg 62%
    01:00 +28°C° 0 mm 1 mps 736 mmHg 61%
    02:00 +28°C° 0 mm 1 mps 736 mmHg 60%
    03:00 +28°C° 0 mm 1 mps 736 mmHg 58%
    04:00 +27°C° 0 mm 1 mps 736 mmHg 57%
    05:00 +27°C° 0 mm 1 mps 736 mmHg 56%
    06:00 +27°C° 0 mm 1 mps 737 mmHg 54%
    07:00 +30°C° 0 mm 1 mps 737 mmHg 48%
    08:00 +33°C° 0 mm 1 mps 738 mmHg 42%
    09:00 +36°C° 0 mm 1 mps 738 mmHg 36%
    10:00 +39°C° 0 mm 2 mps 738 mmHg 33%
    11:00 +40°C° 0 mm 2 mps 737 mmHg 30%
    12:00 +43°C° 0 mm 3 mps 737 mmHg 27%
    13:00 +44°C° 0 mm 3 mps 737 mmHg 25%
    14:00 +44°C° 0 mm 3 mps 736 mmHg 24%
    15:00 +45°C° 0 mm 3 mps 735 mmHg 22%
    16:00 +44°C° 0 mm 3 mps 735 mmHg 24%
    17:00 +42°C° 0 mm 2 mps 735 mmHg 25%
    18:00 +41°C° 0 mm 2 mps 735 mmHg 27%
    19:00 +39°C° 0.2 mm 2 mps 735 mmHg 32%
    20:00 +36°C° 0.2 mm 2 mps 736 mmHg 37%
    21:00 +34°C° 0.2 mm 3 mps 736 mmHg 42%
    22:00 +32°C° 0 mm 2 mps 736 mmHg 42%
    23:00 +31°C° 0 mm 2 mps 736 mmHg 43%
    Show more